Location: ????????
(55.4000°N, 39.1167°E)
Time: 03:38:58
(UTC+00:00)

BlueWalker 3 - Pass Details

Date: 19 May 2025
Orbit: 460 x 472 km, 53.2° (Epoch: 19 June)

Event Time Altitude Azimuth Distance (km) Brightness Sun altitude
Rises 19:31:07 0° 279° (W) 2,497 6.0 -11.2°
Reaches altitude 10° 19:33:54 10° 256° (WSW) 1,620 4.7 -11.3°
Maximum altitude 19:36:08 16° 219° (SW) 1,313 3.8 -11.5°
Enters shadow 19:37:34 13° 192° (SSW) 1,447 3.8 -11.6°
